Location: Cheyres
(46.8153°N, 6.7877°E)
Time: 13:55:31
(UTC+00:00)

FENGYUN 1C DEB - Pass Details

Date: 01 December 2021
Orbit: 843 x 915 km, 99.0° (Epoch: 18 January)

Event Time Altitude Azimuth Distance (km) Brightness Sun altitude
Exits shadow 18:38:55 25° 358° (N) 1,664 ? -28.8°
Drops below altitude 10° 18:41:12 10° 351° (N) 2,504 ? -29.1°
Sets 18:43:35 0° 349° (NNW) 3,436 ? -29.6°
